Погода в Большой Талде

Россия / Кемеровская область (Кузбасс)     54°09′56″N   87°03′52″E
темп.,
°C
ветер,
м/с
пор.,
м/с
влажн.,
%
обл.,
%
осадки,
мм/ч
давл.,
гПа
погр.,
м
13 июня, вс
вс1301:00+9ссв337284 0.0 101430
04:00+8с227763 0.0 101510
07:00+10ссз117497 0.0 101592
10:00+14ююз227345 0.0 1015547
13:00+17зсз3358100 0.0 10141221
16:00+18зсз3553100 0.0 10131476
19:00+17сз4770100 0.1 1013495
22:00+12зсз1195100 0.6 101511
14 июня, пн
пн1401:00+11зюз2397100 0.7 1015141
04:00+11зсз249997 0.1 1015160
07:00+12сз359896 0.2 1016325
10:00+13ссз349298 0.1 1017451
13:00+18ссз455515 0.3 10171684
16:00+19ссз565089 0.0 10171876
19:00+18ссз47644 0.0 1017523
22:00+12с34660 0.0 101945
15 июня, вт
вт1501:00+9ссв22710 0.0 101925
04:00+7св11765 0.0 101910
07:00+11ссв12725 0.0 101993
10:00+16ссв235681 0.0 1019579
13:00+19сз33526 0.0 10181423
16:00+20сз44585 0.0 1017926
19:00+19сз347139 0.0 1016377
22:00+13зсз11805 0.0 101611
16 июня, ср
ср1601:00+12ююз118236 0.0 101610
04:00+11ю22875 0.0 101624
07:00+13ююв23821 0.0 1016109
10:00+18ююз34735 0.0 1016482
13:00+22зюз24625 0.4 10151297
16:00+24зсз14558 0.3 10131462
19:00+19з127470 0.6 101331
22:00+16зюз22854 0.4 101311
17 июня, чт
чт1701:00+15ююз22895 1.8 101311
04:00+13ююв339313 0.3 101336
07:00+16ююв35935 0.3 1013140
10:00+21ююз457580 0.0 1012605
13:00+24юз356488 1.0 10101230
16:00+26з2554100 0.1 10081851
19:00+23сз1377100 0.7 1007125
22:00+18с118592 1.6 100811